Regional Weather Roundup
Issued by NWS

Home | Current Version | Previous Version | Graphics & Text | Print | Product List | Glossary On
Versions: 1 2 3 4 5 6 7 8 9 10 11 12 13 14 15 16 17 18 19 20 21 22 23 24 25 26 27 28 29 30 31 32 33 34 35 36 37 38 39 40 41 42 43 44 45 46 47 48 49 50
000
ASUS43 KBIS 012120
RWRND

NORTH DAKOTA REGIONAL WEATHER ROUNDUP
NATIONAL WEATHER SERVICE BISMARCK ND
400 PM CDT WED OCT 01 2014

NOTE: "FAIR" INDICATES FEW OR NO CLOUDS BELOW 12,000 FEET WITH NO
SIGNIFICANT WEATHER AND/OR OBSTRUCTIONS TO VISIBILITY.


NDZ001>003-009>011-017-012200-
NORTHWEST NORTH DAKOTA

CITY           SKY/WX    TMP DP  RH WIND       PRES   REMARKS
WILLISTON      CLOUDY    58  45  62 NW18      29.76R
MINOT          CLOUDY    57  49  74 W16       29.67R
MINOT AFB      CLOUDY    58  53  83 NW21      29.65R
$$

NDZ018>021-031>035-040>046-012200-
SOUTHWEST NORTH DAKOTA

CITY           SKY/WX    TMP DP  RH WIND       PRES   REMARKS
BISMARCK       CLOUDY    63  49  60 W16       29.74R
DICKINSON      CLOUDY    54  46  74 W13       29.78R
GARRISON         N/A     57  50  77 W17       29.70R
HETTINGER ARPT CLOUDY    53  45  74 W21G28    29.83S
$$

NDZ004>008-012>016-024-026-027-054-012200-
NORTHEAST NORTH DAKOTA

CITY           SKY/WX    TMP DP  RH WIND       PRES   REMARKS
GRAND FORKS    CLOUDY    65  53  65 SW15G21   29.60R
GRND FRKS AFB  CLOUDY    63  55  77 SW14      29.61R
DEVILS LAKE    CLOUDY    61  48  63 W22       29.60S
$$

NDZ022-023-025-028>030-036>039-047>053-012200-
SOUTHEAST NORTH DAKOTA

CITY           SKY/WX    TMP DP  RH WIND       PRES   REMARKS
FARGO          CLOUDY    68  50  52 W20G28    29.65R
JAMESTOWN      CLOUDY    61  49  64 W15G25    29.68R
$$




USA.gov is the U.S. government's official web portal to all federal, state and local government web resources and services.